Regional Weather Roundup
Issued by NWS Sioux Falls, SD

Home | Current Version | Previous Version | Text Only | Print | Product List | Glossary Off
Versions: 1 2 3 4 5 6 7 8 9 10 11 12 13 14 15 16 17 18 19 20 21 22 23 24 25 26 27 28 29 30 31 32 33 34 35 36 37 38 39 40 41 42 43 44 45 46 47 48 49 50

000
ASUS43 KFSD 241702
RWRFSD

WEATHER ROUNDUP FOR SE SOUTH DAKOTA/SW MINNESOTA/NW IOWA
NATIONAL WEATHER SERVICE SIOUX FALLS SD
1200 PM CDT SUN MAY 24 2015

NOTE: "FAIR" INDICATES FEW OR NO CLOUDS BELOW 12,000 FEET WITH NO
SIGNIFICANT WEATHER AND OR OBSTRUCTIONS TO VISIBILITY.


SDZ038>040-050-052>070-241800-
SOUTHEAST SOUTH DAKOTA

CITY           SKY/WX    TMP DP  RH WIND       PRES   REMARKS
BROOKINGS      CLOUDY    61  57  88 E7        29.93F
CHAMBERLAIN    NOT AVBL
HURON          LGT RAIN  59  58  96 E13       29.92F FOG
MADISON        LGT RAIN  59  59 100 E10       29.92F
MITCHELL       LGT RAIN  62  60  93 NE7       29.90F FOG
SIOUX FALLS    LGT RAIN  60  59  96 E13       29.89F FOG
WINNER         CLOUDY    59  56  89 E12       29.90S
YANKTON        CLOUDY    61  57  88 E8        29.87S
$$

MNZ071-072-080-081-089-090-097-098-241800-
SOUTHWEST MINNESOTA

CITY           SKY/WX    TMP DP  RH WIND       PRES   REMARKS
FAIRMONT       CLOUDY    61  54  77 E17G23    29.93F
JACKSON        RAIN      59  59 100 E15       29.92F
LUVERNE        CLOUDY    61  59  94 E12G17    29.90F
MARSHALL       CLOUDY    61  55  82 E14       29.93F
MONTEVIDEO     CLOUDY    63  57  82 S13       29.97F
REDWOOD FALLS  LGT RAIN  61  59  93 E9        29.95F FOG
TRACY          DRIZZLE   60  59  96 E8        29.94F
WINDOM         CLOUDY    61  57  88 E15G21    29.93F FOG
WORTHINGTON    CLOUDY    61  55  82 E16       29.91F
$$

IAZ001>003-012>014-020>022-031-032-NEZ013-014-SDZ071-241800-
NORTHWEST IOWA

CITY           SKY/WX    TMP DP  RH WIND       PRES   REMARKS
DENISON        CLOUDY    63  63 100 S9        29.83R
ESTHERVILLE    LGT RAIN  59  58  96 E15G24    29.90F FOG
SIOUX CITY     CLOUDY    63  58  83 E9        29.85S
SPENCER        LGT RAIN  61  59  93 E15       29.88F FOG
$$

ABBREVIATIONS USED IN REMARKS
   TC - TEMPERATURE IN CELSIUS
  WCI - WIND CHILL INDEX
   HX - HEAT INDEX
  VSB - VISIBILITY




USA.gov is the U.S. government's official web portal to all federal, state and local government web resources and services.